Вернуться в каталог

CZ-4 DEB

АктивенSSO
NORAD 26446·DEBRIS·🇨🇳 China

Запущен Oct 14, 1999 с Taiyuan Satellite Launch Center

Loading…

Ближайшие Пролёты (ближайшие 24 часа)

TLE

СвежийSource: Space-Track

Эпоха: Sep 14, 2026, 11:27 UTC

1 26446U 99057KT  26257.47775912  .00001117  00000-0  28979-3 0  9994
2 26446  98.5495 331.0257 0092640 207.5323 152.0947 14.49273261383986

Отслеживайте CZ-4 DEB в реальном времени с AllMySat

Download on the App Store